Miscellaneous Local Product
Issued by NWS Hastings, NE

Home | Current Version | Previous Version | Text Only | Print | Product List | Glossary On
Versions: 1 2 3 4 5 6 7 8 9 10 11 12 13 14 15 16 17 18 19 20 21 22 23 24 25 26 27 28 29 30 31 32 33 34 35 36 37 38 39 40 41 42 43 44 45 46 47 48 49 50
000
AXUS43 KGID 281802
MISGRI

GID CWA HOURLY WEATHER ROUNDUP
NATIONAL WEATHER SERVICE HASTINGS NE
100 PM CDT SUN MAY 28 2017

NOTE: "FAIR" INDICATES FEW OR NO CLOUDS BELOW 12,000 FEET WITH NO
SIGNIFICANT WEATHER AND/OR OBSTRUCTIONS TO VISIBILITY.

...SOUTH CENTRAL NEBRASKA...

CITY           SKY/WX    TMP DP  RH WIND       PRES   REMARKS
GRAND ISLAND   SUNNY     80  43  26 NW18G30   29.99F
HASTINGS       MOSUNNY   77  39  25 NW20G28   30.02S
KEARNEY        MOSUNNY   79  39  24 NW18G29   30.03S
ORD            SUNNY     76  45  33 NW21G30   29.99R
YORK           SUNNY     79  39  24 NW20G28   29.96F
AURORA         PTSUNNY   79  38  22 NW20G39   29.98F
LEXINGTON      CLOUDY    72  47  39 NW13      30.05S
HOLDREGE       SUNNY     76  37  24 NW16G23   30.05S
HEBRON         SUNNY     78  44  30 NW9       30.00F

...NEBRASKA PANHANDLE...

CITY           SKY/WX    TMP DP  RH WIND       PRES   REMARKS
CHADRON        PTSUNNY   68  47  46 N9        30.12F
ALLIANCE       SUNNY     70  41  34 N17G24    30.14S
SCOTTSBLUFF    PTSUNNY   70  41  34 NW15      30.17F
SIDNEY         SUNNY     69  40  34 NW13G24   30.19F

...WESTERN AND NORTH CENTRAL NEBRASKA...

CITY           SKY/WX    TMP DP  RH WIND       PRES   REMARKS
VALENTINE      SUNNY     73  38  27 NW20G28   30.05R
AINSWORTH      MOSUNNY   70  43  37 NW17G29   30.04S
ONEILL         SUNNY     71  40  32 NW18G26   30.00S
BROKEN BOW     MOSUNNY   79  43  27 NW21G32   30.03S
IMPERIAL       SUNNY     75  36  24 N13G24    30.13F
NORTH PLATTE   MOSUNNY   75  42  30 NW18G26   30.07S
MCCOOK         MOSUNNY   78  40  25 NW14      30.09S

...EASTERN NEBRASKA...

CITY           SKY/WX    TMP DP  RH WIND       PRES   REMARKS
NORFOLK        SUNNY     74  46  36 NW23G32   29.92R
SO SIOUX CITY  MOSUNNY   75  50  41 NW16G26   29.88S
TEKAMAH        MOSUNNY   80  41  24 W13G26    29.87F
ALBION         SUNNY     75  49  40 NW20G26   29.97R
OMAHA EPPLEY   MOSUNNY   77  49  37 W9        29.90F
OFFUTT AFB     SUNNY     77  50  38 SW9       29.91F
MILLARD        PTSUNNY   78  48  35 W10G17    29.91F
LINCOLN        MOSUNNY   80  43  26 W9        29.95F
NEBRASKA CITY  SUNNY     76  41  28 W9        29.95S
BEATRICE       SUNNY     77  47  35 NW10      29.98S
FALLS CITY     SUNNY     76  53  44 NW13      29.95S

...NORTHERN KANSAS...

CITY           SKY/WX    TMP DP  RH WIND       PRES   REMARKS
GOODLAND       SUNNY     70  45  40 NW10G21   30.17S
HILL CITY      SUNNY     78  44  29 NW10      30.10S
NORTON         CLEAR     73  39  29 W13G22    30.08S
PHILLIPSBURG   SUNNY     77  45  31 W9        30.07S
SMITH CENTER   SUNNY     75  45  33 NW13G24   30.05F
HAYS           SUNNY     76  49  38 NW13      30.09R
RUSSELL        SUNNY     75  50  41 NW12G20   30.06S
CONCORDIA      SUNNY     76  54  46 W16G22    30.02S
SALINA         SUNNY     80  50  34 W8        30.04S
TOPEKA         SUNNY     79  57  46 W8G17     29.97S



USA.gov is the U.S. government's official web portal to all federal, state and local government web resources and services.